Flag for Slovakia Weather past 2 weeks in Bratislava, Slovakia

Now
19 °F

Passing clouds.


Feels Like: 10 °F
Forecast: 14 / 22 °F
Wind: 7 mph from Northwest

Location: Bratislava Ivanka

Current Time: Dec 29, 2014 at 2:55:10 AM

Latest Report: Dec 29, 2014 at 2:30 AM


Visibility: N/A

Pressure: 30.24 "Hg

Humidity: 68%

Dew point: 10 °F

Location of BratislavaLocation

Historic Weather in Bratislava — Graph

°F

Bratislava temperature yesterday

Maximum temperature yesterday: 30 °F (at 11:30 AM)
Minimum temperature yesterday: 19 °F (at 10:30 PM)
Average temperature yesterday: 26 °F

Past Weeks' High & Low Weather Summary

 TemperatureHumidityPressure
High61 °F (Dec 19, 1:00 PM)100% (Dec 16, 2:00 AM)30.39 "Hg (Dec 16, 2:00 AM)
Low19 °F (Dec 28, 10:30 PM)27% (Dec 24, 1:00 PM)29.68 "Hg (Dec 28, 3:30 AM)
Average41 °F72%30.07 "Hg
* Reported Dec 14 2:00 AM — Dec 29 2:00 AM, Bratislava, Weather by CustomWeather, © 2014

Note: Actual official high and low records may vary slightly from our data, if they occured in-between our weather recording intervals... More about our weather records

Advertising

Bratislava weather history for previous 24 hours

 ConditionsComfort  
Time TempWeatherWind HumidityBarometerVisibility
2:00 AM
Dec 29
19 °FPassing clouds.17 mph63%30.21 "HgN/A
1:30 AM19 °FLow level haze.17 mph63%30.18 "HgN/A
1:00 AM19 °FLow level haze.18 mph63%30.18 "HgN/A
12:30 AM19 °FClear.17 mph58%30.18 "Hg10 mi
12:00 AM19 °FPassing clouds.14 mph58%30.18 "HgN/A
11:30 PM
Dec 28
19 °FClear.14 mph63%30.18 "Hg10 mi
11:00 PM19 °FClear.18 mph63%30.15 "Hg10 mi
10:30 PM19 °FClear.17 mph68%30.15 "Hg10 mi
10:00 PM21 °FClear.18 mph63%30.12 "Hg10 mi
9:30 PM21 °FClear.12 mph63%30.12 "Hg10 mi
9:00 PM23 °FClear.12 mph63%30.09 "Hg10 mi
8:30 PM21 °FClear.15 mph68%30.07 "Hg10 mi
8:00 PM23 °FClear.17 mph68%30.07 "Hg10 mi
7:30 PM25 °FClear.18 mph63%30.04 "Hg10 mi
7:00 PM25 °FPassing clouds.17 mph63%30.01 "HgN/A
6:30 PM25 °FPassing clouds.15 mph63%30.01 "HgN/A
6:00 PM25 °FPassing clouds.18 mph69%30.01 "HgN/A
5:30 PM25 °FPassing clouds.16 mph69%29.98 "HgN/A
5:00 PM25 °FPassing clouds.14 mph69%29.98 "HgN/A
4:30 PM25 °FPassing clouds.14 mph69%29.95 "Hg4 mi
4:00 PM27 °FScattered clouds.13 mph69%29.95 "Hg5 mi
3:30 PM27 °FBroken clouds.12 mph69%29.92 "Hg5 mi
3:00 PM28 °FBroken clouds.12 mph69%29.89 "Hg4 mi
2:30 PM28 °FPartly sunny.12 mph69%29.89 "Hg4 mi
2:00 PM28 °FPartly sunny.10 mph74%29.89 "Hg3 mi
1:30 PM28 °FPartly sunny.9 mph80%29.86 "Hg3 mi
1:00 PM30 °FLight snow. Partly sunny.2 mph80%29.86 "Hg2 mi
12:30 PM30 °FLight snow. Broken clouds.1 mph86%29.86 "Hg4 mi
12:00 PM30 °FLight snow. More clouds than sun.3 mph86%29.86 "Hg2 mi
11:30 AM30 °FLight snow. Partly sunny.5 mph86%29.86 "Hg2 mi
11:00 AM28 °FLight snow. Mostly cloudy.8 mph86%29.86 "Hg2 mi
10:30 AM28 °FLight snow. Partly sunny.8 mph86%29.86 "Hg1 mi
10:00 AM28 °FSnow. Mostly cloudy.8 mph86%29.86 "Hg1 mi
9:30 AM27 °FSnow. Mostly cloudy.7 mph93%29.83 "Hg1 mi
9:00 AM27 °FSnow. Mostly cloudy.9 mph86%29.83 "Hg2 mi
8:30 AM27 °FLight snow. Mostly cloudy.8 mph86%29.83 "Hg2 mi
8:00 AM27 °FLight snow. Low clouds.12 mph86%29.80 "Hg2 mi
7:30 AM27 °FLight snow. Low clouds.13 mph86%29.80 "Hg3 mi
7:00 AM27 °FLight snow. Partly cloudy.13 mph86%29.77 "Hg4 mi
6:30 AM27 °FLight snow. Passing clouds.13 mph86%29.77 "Hg4 mi
6:00 AM27 °FLight snow. Overcast.14 mph86%29.74 "Hg4 mi
5:30 AM27 °FLight snow. Passing clouds.10 mph93%29.74 "Hg4 mi
4:30 AM27 °FLight snow. Low clouds.9 mph93%29.71 "Hg2 mi
4:00 AM27 °FLight snow. Passing clouds.5 mph93%29.71 "Hg2 mi
3:30 AM27 °FLight snow. Low clouds.9 mph93%29.68 "Hg1 mi
3:00 AM27 °FLight snow. Mostly cloudy.10 mph93%29.71 "Hg1 mi
2:30 AM27 °FLight snow. Passing clouds.15 mph93%29.71 "Hg2 mi
2:00 AM27 °FSnow. Passing clouds.15 mph93%29.71 "Hg1 mi
Weather by CustomWeather, © 2014

See weather overviewHow to use our weather pages